When you browse on this site, cookies collect data to enhance your experience and personalize the content and advertising you see.
Visit our Privacy Policy to learn more. By continuing to use the site, you agree to this use of cookies and data.
  • In United Kingdom
  • List of Countries
  • For 7 days
  • Water Temperature
  • Satellite Maps
  • Weather Map
  • Weather Widgets
  • user-avatar
    Login

    Hourly Weather Mokhotlong

    Today, 21 January, Monday

    Time Temperature Precipitation Wind Pressure Humidity
    00:00 +11°C° 0 mm 1 mps 588 mmHg 75%
    01:00 +10°C° 0 mm 1 mps 587 mmHg 73%
    02:00 +10°C° 0 mm 1 mps 587 mmHg 70%
    03:00 +10°C° 0 mm 1 mps 587 mmHg 65%
    04:00 +8°C° 0 mm 2 mps 587 mmHg 59%
    05:00 +8°C° 0 mm 2 mps 587 mmHg 54%
    06:00 +12°C° 0 mm 2 mps 588 mmHg 45%
    07:00 +15°C° 0 mm 2 mps 589 mmHg 37%
    08:00 +19°C° 0 mm 2 mps 591 mmHg 25%
    09:00 +20°C° 0 mm 2 mps 591 mmHg 23%
    10:00 +22°C° 0 mm 1 mps 591 mmHg 22%
    11:00 +24°C° 0 mm 1 mps 591 mmHg 20%
    12:00 +25°C° 0 mm 1 mps 591 mmHg 19%
    13:00 +26°C° 0 mm 1 mps 591 mmHg 19%
    14:00 +26°C° 0 mm 1 mps 590 mmHg 18%
    15:00 +26°C° 0 mm 2 mps 590 mmHg 19%
    16:00 +26°C° 0 mm 2 mps 590 mmHg 20%
    17:00 +26°C° 0 mm 2 mps 589 mmHg 20%
    18:00 +24°C° 0 mm 2 mps 588 mmHg 26%
    19:00 +20°C° 0 mm 2 mps 587 mmHg 32%
    20:00 +17°C° 0 mm 2 mps 586 mmHg 37%
    21:00 +16°C° 0 mm 2 mps 586 mmHg 38%
    22:00 +16°C° 0 mm 2 mps 586 mmHg 38%
    23:00 +15°C° 0 mm 2 mps 586 mmHg 38%

    Tomorrow, 22 January, Tuesday

    Time Temperature Precipitation Wind Pressure Humidity
    00:00 +15°C° 0 mm 2 mps 586 mmHg 38%
    01:00 +14°C° 0 mm 2 mps 585 mmHg 37%
    02:00 +14°C° 0 mm 2 mps 585 mmHg 37%
    03:00 +14°C° 0 mm 2 mps 585 mmHg 39%
    04:00 +14°C° 0 mm 2 mps 585 mmHg 41%
    05:00 +14°C° 0 mm 2 mps 585 mmHg 43%
    06:00 +16°C° 0 mm 2 mps 586 mmHg 40%
    07:00 +19°C° 0 mm 2 mps 587 mmHg 37%
    08:00 +23°C° 0 mm 2 mps 589 mmHg 34%
    09:00 +24°C° 0 mm 2 mps 589 mmHg 31%
    10:00 +26°C° 0 mm 2 mps 589 mmHg 29%
    11:00 +27°C° 0 mm 1 mps 589 mmHg 27%
    12:00 +27°C° 0 mm 1 mps 589 mmHg 27%
    13:00 +27°C° 0 mm 1 mps 588 mmHg 27%
    14:00 +27°C° 0 mm 1 mps 588 mmHg 27%
    15:00 +26°C° 0.1 mm 1 mps 588 mmHg 31%
    16:00 +26°C° 0.1 mm 1 mps 587 mmHg 34%
    17:00 +25°C° 0.1 mm 1 mps 587 mmHg 38%
    18:00 +23°C° 0.1 mm 1 mps 586 mmHg 42%
    19:00 +22°C° 0.1 mm 1 mps 586 mmHg 47%
    20:00 +20°C° 0.1 mm 1 mps 586 mmHg 52%
    21:00 +19°C° 0.1 mm 1 mps 586 mmHg 55%
    22:00 +17°C° 0.1 mm 2 mps 586 mmHg 57%
    23:00 +17°C° 0.1 mm 2 mps 586 mmHg 60%

    Day after tomorrow, 23 January, Wednesday

    Time Temperature Precipitation Wind Pressure Humidity
    00:00 +16°C° 0 mm 2 mps 586 mmHg 62%
    01:00 +16°C° 0 mm 2 mps 585 mmHg 65%
    02:00 +16°C° 0 mm 2 mps 585 mmHg 67%
    03:00 +15°C° 0 mm 2 mps 584 mmHg 67%
    04:00 +15°C° 0 mm 2 mps 584 mmHg 67%
    05:00 +14°C° 0 mm 2 mps 584 mmHg 68%
    06:00 +17°C° 0 mm 2 mps 585 mmHg 57%
    07:00 +20°C° 0 mm 2 mps 587 mmHg 46%
    08:00 +24°C° 0 mm 2 mps 588 mmHg 36%
    09:00 +25°C° 0 mm 2 mps 588 mmHg 32%
    10:00 +26°C° 0 mm 2 mps 589 mmHg 28%
    11:00 +28°C° 0 mm 2 mps 589 mmHg 24%
    12:00 +28°C° 0 mm 2 mps 588 mmHg 25%
    13:00 +28°C° 0 mm 2 mps 588 mmHg 26%
    14:00 +28°C° 0 mm 2 mps 587 mmHg 27%
    15:00 +27°C° 0.1 mm 2 mps 586 mmHg 29%
    16:00 +26°C° 0.1 mm 2 mps 586 mmHg 32%
    17:00 +26°C° 0.1 mm 1 mps 586 mmHg 35%
    18:00 +24°C° 0.4 mm 2 mps 585 mmHg 41%
    19:00 +21°C° 0.4 mm 2 mps 585 mmHg 47%
    20:00 +19°C° 0.4 mm 2 mps 585 mmHg 53%
    21:00 +18°C° 0.5 mm 2 mps 585 mmHg 62%
    22:00 +17°C° 0.5 mm 2 mps 585 mmHg 70%
    23:00 +16°C° 0.5 mm 2 mps 585 mmHg 78%

    24 January, Thursday

    Time Temperature Precipitation Wind Pressure Humidity
    00:00 +16°C° 0.2 mm 2 mps 585 mmHg 83%
    01:00 +15°C° 0.2 mm 2 mps 585 mmHg 88%
    02:00 +15°C° 0.2 mm 2 mps 585 mmHg 93%
    03:00 +15°C° 0 mm 2 mps 584 mmHg 93%
    04:00 +14°C° 0 mm 2 mps 584 mmHg 93%
    05:00 +14°C° 0 mm 2 mps 584 mmHg 93%
    06:00 +15°C° 0 mm 2 mps 585 mmHg 84%
    07:00 +17°C° 0 mm 2 mps 586 mmHg 74%
    08:00 +18°C° 0 mm 2 mps 587 mmHg 65%
    09:00 +21°C° 0.1 mm 2 mps 588 mmHg 56%
    10:00 +24°C° 0.1 mm 3 mps 589 mmHg 46%
    11:00 +26°C° 0.1 mm 3 mps 589 mmHg 37%
    12:00 +26°C° 0.7 mm 4 mps 589 mmHg 37%
    13:00 +26°C° 0.7 mm 4 mps 589 mmHg 38%
    14:00 +26°C° 0.7 mm 5 mps 588 mmHg 38%
    15:00 +25°C° 1.3 mm 4 mps 588 mmHg 42%
    16:00 +23°C° 1.3 mm 4 mps 587 mmHg 46%
    17:00 +22°C° 1.3 mm 3 mps 587 mmHg 50%
    18:00 +20°C° 0.4 mm 3 mps 586 mmHg 61%
    19:00 +18°C° 0.4 mm 3 mps 586 mmHg 73%
    20:00 +16°C° 0.4 mm 3 mps 585 mmHg 84%
    21:00 +16°C° 0 mm 3 mps 586 mmHg 86%
    22:00 +14°C° 0 mm 3 mps 586 mmHg 88%
    23:00 +15°C° 0 mm 2 mps 586 mmHg 91%

    25 January, Friday

    Time Temperature Precipitation Wind Pressure Humidity
    00:00 +15°C° 0 mm 2 mps 586 mmHg 91%
    01:00 +14°C° 0 mm 2 mps 586 mmHg 91%
    02:00 +14°C° 0 mm 2 mps 585 mmHg 92%
    03:00 +14°C° 0 mm 2 mps 585 mmHg 92%
    04:00 +14°C° 0 mm 2 mps 585 mmHg 92%
    05:00 +13°C° 0 mm 2 mps 585 mmHg 92%
    06:00 +15°C° 0 mm 2 mps 586 mmHg 85%
    07:00 +16°C° 0 mm 2 mps 587 mmHg 77%
    08:00 +18°C° 0 mm 2 mps 588 mmHg 70%
    09:00 +19°C° 0 mm 3 mps 588 mmHg 61%
    10:00 +21°C° 0 mm 4 mps 589 mmHg 52%
    11:00 +23°C° 0 mm 5 mps 589 mmHg 43%
    12:00 +24°C° 0.1 mm 6 mps 589 mmHg 40%
    13:00 +26°C° 0.1 mm 7 mps 589 mmHg 37%
    14:00 +27°C° 0.1 mm 8 mps 589 mmHg 34%
    15:00 +26°C° 0.8 mm 7 mps 588 mmHg 37%
    16:00 +24°C° 0.8 mm 7 mps 587 mmHg 39%
    17:00 +23°C° 0.8 mm 6 mps 587 mmHg 42%
    18:00 +21°C° 1 mm 5 mps 586 mmHg 52%
    19:00 +19°C° 1 mm 4 mps 586 mmHg 62%
    20:00 +16°C° 1 mm 3 mps 585 mmHg 72%
    21:00 +16°C° 0.1 mm 3 mps 586 mmHg 78%
    22:00 +14°C° 0.1 mm 3 mps 586 mmHg 84%
    23:00 +15°C° 0.1 mm 2 mps 586 mmHg 90%

    26 January, Saturday

    Time Temperature Precipitation Wind Pressure Humidity
    00:00 +15°C° 0 mm 2 mps 586 mmHg 90%
    01:00 +14°C° 0 mm 2 mps 586 mmHg 91%
    02:00 +14°C° 0 mm 2 mps 586 mmHg 91%
    03:00 +14°C° 0 mm 2 mps 586 mmHg 91%
    04:00 +13°C° 0 mm 2 mps 586 mmHg 91%
    05:00 +13°C° 0 mm 2 mps 586 mmHg 91%
    06:00 +14°C° 0 mm 2 mps 586 mmHg 86%
    07:00 +15°C° 0 mm 2 mps 587 mmHg 81%
    08:00 +15°C° 0 mm 2 mps 588 mmHg 76%
    09:00 +17°C° 0.1 mm 2 mps 588 mmHg 69%
    10:00 +18°C° 0.1 mm 3 mps 589 mmHg 62%
    11:00 +20°C° 0.1 mm 3 mps 589 mmHg 54%
    12:00 +21°C° 0.6 mm 4 mps 589 mmHg 51%
    13:00 +22°C° 0.6 mm 4 mps 589 mmHg 47%
    14:00 +23°C° 0.6 mm 5 mps 589 mmHg 44%
    15:00 +21°C° 2.4 mm 4 mps 588 mmHg 55%
    16:00 +19°C° 2.4 mm 3 mps 587 mmHg 66%
    17:00 +18°C° 2.4 mm 1 mps 586 mmHg 77%
    18:00 +16°C° 0.7 mm 2 mps 586 mmHg 81%
    19:00 +15°C° 0.7 mm 2 mps 586 mmHg 85%
    20:00 +14°C° 0.7 mm 3 mps 586 mmHg 89%
    21:00 +13°C° 0.8 mm 3 mps 587 mmHg 90%
    22:00 +13°C° 0.8 mm 3 mps 587 mmHg 91%
    23:00 +13°C° 0.8 mm 3 mps 587 mmHg 91%
    Show more